Time,TemperatureF,DewpointF,PressureIn,WindDirection,WindDirectionDegrees,WindSpeedMPH,WindSpeedGustMPH,Humidity,HourlyPrecipIn,Conditions,Clouds,dailyrainin,SoftwareType,DateUTC
2013-01-20 00:04:00,35.0,30.0,30.23,WSW,250,0.0,0.0,82,0.00,,,0.01,,2013-01-20 05:04:00,
2013-01-20 00:12:00,35.0,30.0,30.23,WSW,250,0.0,0.0,82,0.00,,,0.01,,2013-01-20 05:12:00,
2013-01-20 00:23:00,35.0,30.0,30.22,WSW,250,0.0,0.0,82,0.00,,,0.01,,2013-01-20 05:23:00,
2013-01-20 00:33:00,35.0,30.0,30.22,WSW,250,0.0,0.0,81,0.00,,,0.01,,2013-01-20 05:33:00,
2013-01-20 00:43:00,35.0,30.0,30.22,WSW,250,0.0,0.0,81,0.00,,,0.01,,2013-01-20 05:43:00,
2013-01-20 00:53:00,34.0,29.0,30.21,WSW,250,0.0,0.0,83,0.00,,,0.01,,2013-01-20 05:53:00,
2013-01-20 01:02:00,34.0,29.0,30.21,WSW,250,0.0,0.0,83,0.00,,,0.01,,2013-01-20 06:02:00,
2013-01-20 01:12:00,34.0,29.0,30.21,WSW,250,0.0,0.0,83,0.00,,,0.01,,2013-01-20 06:12:00,
2013-01-20 01:22:00,33.0,28.0,30.21,WSW,250,0.0,0.0,82,0.00,,,0.01,,2013-01-20 06:22:00,
2013-01-20 01:33:00,33.0,28.0,30.21,WSW,250,0.0,0.0,83,0.00,,,0.01,,2013-01-20 06:33:00,
2013-01-20 01:43:00,33.0,28.0,30.21,WSW,250,0.0,0.0,83,0.00,,,0.01,,2013-01-20 06:43:00,
2013-01-20 01:53:00,33.0,29.0,30.21,WSW,250,0.0,0.0,84,0.00,,,0.01,,2013-01-20 06:53:00,
2013-01-20 02:02:00,33.0,29.0,30.20,WSW,250,0.0,0.0,85,0.00,,,0.01,,2013-01-20 07:02:00,
2013-01-20 02:12:00,33.0,29.0,30.20,WSW,250,0.0,0.0,85,0.00,,,0.01,,2013-01-20 07:12:00,
2013-01-20 02:22:00,33.0,29.0,30.20,WSW,250,0.0,0.0,85,0.00,,,0.01,,2013-01-20 07:22:00,
2013-01-20 02:32:00,32.0,28.0,30.20,WSW,250,0.0,0.0,86,0.00,,,0.01,,2013-01-20 07:32:00,
2013-01-20 02:42:00,32.0,28.0,30.20,WSW,250,0.0,0.0,86,0.00,,,0.01,,2013-01-20 07:42:00,
2013-01-20 02:52:00,33.0,30.0,30.20,WSW,250,0.0,0.0,87,0.00,,,0.01,,2013-01-20 07:52:00,
2013-01-20 03:02:00,32.0,29.0,30.20,WSW,250,0.0,0.0,87,0.00,,,0.01,,2013-01-20 08:02:00,
2013-01-20 03:12:00,32.0,29.0,30.20,WSW,250,0.0,0.0,87,0.00,,,0.01,,2013-01-20 08:12:00,
2013-01-20 03:22:00,33.0,30.0,30.19,WSW,250,0.0,0.0,88,0.00,,,0.01,,2013-01-20 08:22:00,
2013-01-20 03:32:00,32.0,29.0,30.19,WSW,250,0.0,0.0,88,0.00,,,0.01,,2013-01-20 08:32:00,
2013-01-20 03:42:00,32.0,29.0,30.19,WSW,250,0.0,0.0,88,0.00,,,0.01,,2013-01-20 08:42:00,
2013-01-20 03:53:00,32.0,29.0,30.19,WSW,250,0.0,0.0,89,0.00,,,0.01,,2013-01-20 08:53:00,
2013-01-20 04:02:00,32.0,29.0,30.19,WSW,250,0.0,0.0,89,0.00,,,0.01,,2013-01-20 09:02:00,
2013-01-20 04:12:00,32.0,29.0,30.19,WSW,250,0.0,0.0,89,0.00,,,0.01,,2013-01-20 09:12:00,
2013-01-20 04:22:00,33.0,30.0,30.18,WSW,250,0.0,0.0,90,0.00,,,0.01,,2013-01-20 09:22:00,
2013-01-20 04:33:00,33.0,31.0,30.18,WSW,250,0.0,0.0,91,0.00,,,0.01,,2013-01-20 09:33:00,
2013-01-20 04:42:00,33.0,31.0,30.18,WSW,250,0.0,0.0,91,0.00,,,0.01,,2013-01-20 09:42:00,
2013-01-20 04:53:00,33.0,31.0,30.18,WSW,250,0.0,0.0,91,0.00,,,0.01,,2013-01-20 09:53:00,
2013-01-20 05:02:00,32.0,30.0,30.18,WSW,250,0.0,0.0,91,0.00,,,0.01,,2013-01-20 10:02:00,
2013-01-20 05:12:00,32.0,30.0,30.18,WSW,250,0.0,0.0,91,0.00,,,0.01,,2013-01-20 10:12:00,
2013-01-20 05:23:00,32.0,30.0,30.18,WSW,250,0.0,0.0,92,0.00,,,0.01,,2013-01-20 10:23:00,
2013-01-20 05:32:00,33.0,31.0,30.18,WSW,250,0.0,0.0,92,0.00,,,0.01,,2013-01-20 10:32:00,
2013-01-20 05:42:00,33.0,31.0,30.18,WSW,250,0.0,0.0,92,0.00,,,0.01,,2013-01-20 10:42:00,
2013-01-20 05:53:00,32.0,30.0,30.18,WSW,250,0.0,0.0,92,0.00,,,0.01,,2013-01-20 10:53:00,
2013-01-20 06:02:00,32.0,30.0,30.18,WSW,250,0.0,0.0,92,0.00,,,0.01,,2013-01-20 11:02:00,
2013-01-20 06:12:00,32.0,30.0,30.18,WSW,250,0.0,0.0,92,0.00,,,0.01,,2013-01-20 11:12:00,
2013-01-20 06:22:00,32.0,30.0,30.18,WSW,250,0.0,0.0,94,0.00,,,0.01,,2013-01-20 11:22:00,
2013-01-20 06:33:00,33.0,31.0,30.19,WSW,250,0.0,0.0,93,0.00,,,0.01,,2013-01-20 11:33:00,
2013-01-20 06:43:00,33.0,31.0,30.19,WSW,250,0.0,0.0,93,0.00,,,0.01,,2013-01-20 11:43:00,
2013-01-20 06:54:00,33.0,31.0,30.19,WSW,250,0.0,0.0,93,0.00,,,0.01,,2013-01-20 11:54:00,
2013-01-20 07:03:00,33.0,31.0,30.19,WSW,250,0.0,0.0,94,0.00,,,0.01,,2013-01-20 12:03:00,
2013-01-20 07:12:00,33.0,31.0,30.19,WSW,250,0.0,0.0,94,0.00,,,0.01,,2013-01-20 12:12:00,
2013-01-20 07:23:00,33.0,31.0,30.19,WSW,250,0.0,0.0,94,0.00,,,0.01,,2013-01-20 12:23:00,
2013-01-20 07:33:00,33.0,31.0,30.19,WSW,250,0.0,0.0,94,0.00,,,0.01,,2013-01-20 12:33:00,
2013-01-20 07:43:00,33.0,31.0,30.19,WSW,250,0.0,0.0,94,0.00,,,0.01,,2013-01-20 12:43:00,
2013-01-20 07:53:00,34.0,32.0,30.19,WSW,250,0.0,0.0,93,0.00,,,0.01,,2013-01-20 12:53:00,
2013-01-20 08:03:00,34.0,32.0,30.19,WSW,250,0.0,0.0,92,0.00,,,0.01,,2013-01-20 13:03:00,
2013-01-20 08:12:00,34.0,32.0,30.19,WSW,250,0.0,0.0,92,0.00,,,0.01,,2013-01-20 13:12:00,
2013-01-20 08:23:00,35.0,33.0,30.20,WSW,250,0.0,0.0,92,0.00,,,0.01,,2013-01-20 13:23:00,
2013-01-20 08:33:00,36.0,34.0,30.20,WSW,250,0.0,0.0,92,0.00,,,0.01,,2013-01-20 13:33:00,
2013-01-20 08:43:00,36.0,34.0,30.20,WSW,250,0.0,0.0,92,0.00,,,0.01,,2013-01-20 13:43:00,
2013-01-20 08:53:00,38.0,36.0,30.19,WSW,250,0.0,0.0,91,0.00,,,0.00,,2013-01-20 13:53:00,
2013-01-20 09:02:00,41.0,39.0,30.19,North,349,0.0,0.0,91,0.00,,,0.00,,2013-01-20 14:02:00,
2013-01-20 09:12:00,41.0,39.0,30.19,North,349,0.0,0.0,91,0.00,,,0.00,,2013-01-20 14:12:00,
2013-01-20 09:23:00,43.0,41.0,30.19,NNW,328,0.0,0.0,91,0.00,,,0.00,,2013-01-20 14:23:00,
2013-01-20 09:33:00,44.0,42.0,30.19,WNW,288,0.0,0.0,91,0.00,,,0.00,,2013-01-20 14:33:00,
2013-01-20 09:43:00,44.0,42.0,30.19,WNW,288,0.0,0.0,91,0.00,,,0.00,,2013-01-20 14:43:00,
2013-01-20 09:53:00,45.0,43.0,30.19,SSE,160,0.0,1.0,91,0.00,,,0.00,,2013-01-20 14:53:00,
2013-01-20 10:03:00,46.0,34.0,30.19,ENE,64,0.0,2.0,62,0.00,,,0.00,,2013-01-20 15:03:00,
2013-01-20 10:12:00,46.0,34.0,30.19,ENE,64,0.0,2.0,62,0.00,,,0.00,,2013-01-20 15:12:00,
2013-01-20 10:23:00,47.0,34.0,30.19,NNW,339,0.0,5.0,61,0.00,,,0.00,,2013-01-20 15:23:00,
2013-01-20 10:33:00,49.0,35.0,30.19,NNW,339,0.0,0.0,59,0.00,,,0.00,,2013-01-20 15:33:00,
2013-01-20 10:42:00,49.0,35.0,30.19,NNW,339,0.0,0.0,59,0.00,,,0.00,,2013-01-20 15:42:00,
2013-01-20 10:53:00,50.0,35.0,30.19,WNW,295,0.0,0.0,56,0.00,,,0.00,,2013-01-20 15:53:00,
2013-01-20 11:03:00,51.0,35.0,30.19,WNW,284,0.0,2.0,54,0.00,,,0.00,,2013-01-20 16:03:00,
2013-01-20 11:12:00,51.0,35.0,30.19,WNW,284,0.0,2.0,54,0.00,,,0.00,,2013-01-20 16:12:00,
2013-01-20 11:23:00,51.0,34.0,30.19,NNW,347,1.0,7.0,52,0.00,,,0.00,,2013-01-20 16:23:00,
2013-01-20 11:33:00,52.0,34.0,30.18,SSW,195,0.0,7.0,50,0.00,,,0.00,,2013-01-20 16:33:00,
2013-01-20 11:43:00,52.0,34.0,30.18,SSW,195,0.0,7.0,50,0.00,,,0.00,,2013-01-20 16:43:00,
2013-01-20 11:53:00,53.0,34.0,30.17,West,280,0.0,4.0,49,0.00,,,0.00,,2013-01-20 16:53:00,
2013-01-20 12:03:00,54.0,35.0,30.16,NW,322,1.0,5.0,48,0.00,,,0.00,,2013-01-20 17:03:00,
2013-01-20 12:13:00,54.0,35.0,30.16,NW,322,1.0,5.0,48,0.00,,,0.00,,2013-01-20 17:13:00,
2013-01-20 12:22:00,54.0,34.0,30.16,NNW,328,0.0,6.0,47,0.00,,,0.00,,2013-01-20 17:22:00,
2013-01-20 12:33:00,55.0,36.0,30.15,NE,35,0.0,6.0,49,0.00,,,0.00,,2013-01-20 17:33:00,
2013-01-20 12:42:00,55.0,36.0,30.15,NE,35,0.0,6.0,49,0.00,,,0.00,,2013-01-20 17:42:00,
2013-01-20 12:53:00,55.0,35.0,30.14,NW,316,1.0,7.0,47,0.00,,,0.00,,2013-01-20 17:53:00,
2013-01-20 13:03:00,56.0,36.0,30.12,NE,48,0.0,2.0,47,0.00,,,0.00,,2013-01-20 18:03:00,
2013-01-20 13:13:00,56.0,36.0,30.12,NE,48,0.0,2.0,47,0.00,,,0.00,,2013-01-20 18:13:00,
2013-01-20 13:23:00,57.0,36.0,30.12,WSW,251,0.0,7.0,46,0.00,,,0.00,,2013-01-20 18:23:00,
2013-01-20 13:33:00,57.0,36.0,30.12,NW,313,1.0,7.0,46,0.00,,,0.00,,2013-01-20 18:33:00,
2013-01-20 13:43:00,57.0,36.0,30.12,NW,313,1.0,7.0,46,0.00,,,0.00,,2013-01-20 18:43:00,
2013-01-20 13:53:00,58.0,36.0,30.11,North,359,1.0,5.0,44,0.00,,,0.00,,2013-01-20 18:53:00,
2013-01-20 14:03:00,58.0,37.0,30.10,West,263,2.0,9.0,45,0.00,,,0.00,,2013-01-20 19:03:00,
2013-01-20 14:12:00,58.0,37.0,30.10,West,263,2.0,9.0,45,0.00,,,0.00,,2013-01-20 19:12:00,
2013-01-20 14:22:00,59.0,37.0,30.09,South,182,1.0,6.0,44,0.00,,,0.00,,2013-01-20 19:22:00,
2013-01-20 14:33:00,60.0,37.0,30.08,NNW,335,1.0,5.0,42,0.00,,,0.00,,2013-01-20 19:33:00,
2013-01-20 14:43:00,60.0,37.0,30.08,NNW,335,1.0,5.0,42,0.00,,,0.00,,2013-01-20 19:43:00,
2013-01-20 14:53:00,61.0,36.0,30.07,South,175,0.0,4.0,40,0.00,,,0.00,,2013-01-20 19:53:00,
2013-01-20 15:03:00,62.0,38.0,30.07,NW,305,0.0,7.0,41,0.00,,,0.00,,2013-01-20 20:03:00,
2013-01-20 15:12:00,62.0,38.0,30.07,NW,305,0.0,7.0,41,0.00,,,0.00,,2013-01-20 20:12:00,
2013-01-20 15:23:00,62.0,37.0,30.07,SE,137,0.0,9.0,39,0.00,,,0.00,,2013-01-20 20:23:00,
2013-01-20 15:33:00,62.0,37.0,30.06,East,80,1.0,5.0,40,0.00,,,0.00,,2013-01-20 20:33:00,
2013-01-20 15:42:00,62.0,37.0,30.06,East,80,1.0,5.0,40,0.00,,,0.00,,2013-01-20 20:42:00,
2013-01-20 15:54:00,62.0,36.0,30.06,SW,230,1.0,6.0,38,0.00,,,0.00,,2013-01-20 20:54:00,
2013-01-20 16:04:00,62.0,35.0,30.07,WSW,243,0.0,7.0,36,0.00,,,0.00,,2013-01-20 21:04:00,
2013-01-20 16:13:00,62.0,35.0,30.07,WSW,243,0.0,7.0,36,0.00,,,0.00,,2013-01-20 21:13:00,
2013-01-20 16:23:00,61.0,35.0,30.07,ESE,120,1.0,8.0,38,0.00,,,0.00,,2013-01-20 21:23:00,
2013-01-20 16:33:00,61.0,35.0,30.07,NW,325,1.0,8.0,38,0.00,,,0.00,,2013-01-20 21:33:00,
2013-01-20 16:43:00,61.0,35.0,30.07,NW,325,1.0,8.0,38,0.00,,,0.00,,2013-01-20 21:43:00,
2013-01-20 16:53:00,60.0,33.0,30.07,WNW,292,0.0,5.0,36,0.00,,,0.00,,2013-01-20 21:53:00,
2013-01-20 17:03:00,60.0,34.0,30.07,NNW,329,0.0,0.0,38,0.00,,,0.00,,2013-01-20 22:03:00,
2013-01-20 17:13:00,60.0,34.0,30.07,NNW,329,0.0,0.0,38,0.00,,,0.00,,2013-01-20 22:13:00,
2013-01-20 17:23:00,59.0,34.0,30.07,NNW,332,0.0,1.0,39,0.00,,,0.00,,2013-01-20 22:23:00,
2013-01-20 17:33:00,58.0,35.0,30.08,WNW,287,0.0,6.0,42,0.00,,,0.00,,2013-01-20 22:33:00,
2013-01-20 17:43:00,58.0,35.0,30.08,WNW,287,0.0,6.0,42,0.00,,,0.00,,2013-01-20 22:43:00,
2013-01-20 17:53:00,58.0,34.0,30.08,NNE,18,0.0,2.0,40,0.00,,,0.00,,2013-01-20 22:53:00,
2013-01-20 18:03:00,57.0,34.0,30.08,North,359,0.0,4.0,41,0.00,,,0.00,,2013-01-20 23:03:00,
2013-01-20 18:13:00,57.0,34.0,30.08,North,359,0.0,4.0,41,0.00,,,0.00,,2013-01-20 23:13:00,
2013-01-20 18:23:00,56.0,33.0,30.09,WNW,302,0.0,4.0,41,0.00,,,0.00,,2013-01-20 23:23:00,
2013-01-20 18:33:00,55.0,33.0,30.09,NNW,333,0.0,0.0,44,0.00,,,0.00,,2013-01-20 23:33:00,
2013-01-20 18:43:00,55.0,33.0,30.09,NNW,333,0.0,0.0,44,0.00,,,0.00,,2013-01-20 23:43:00,
2013-01-20 18:53:00,53.0,32.0,30.09,NNW,333,0.0,0.0,44,0.00,,,0.00,,2013-01-20 23:53:00,
2013-01-20 19:03:00,52.0,34.0,30.10,NNW,333,0.0,0.0,51,0.00,,,0.00,,2013-01-21 00:03:00,
2013-01-20 19:13:00,52.0,34.0,30.10,NNW,333,0.0,0.0,51,0.00,,,0.00,,2013-01-21 00:13:00,
2013-01-20 19:23:00,51.0,35.0,30.10,West,270,0.0,3.0,55,0.00,,,0.00,,2013-01-21 00:23:00,
2013-01-20 19:33:00,49.0,35.0,30.11,West,270,0.0,0.0,59,0.00,,,0.00,,2013-01-21 00:33:00,
2013-01-20 19:43:00,49.0,35.0,30.11,West,270,0.0,0.0,59,0.00,,,0.00,,2013-01-21 00:43:00,
2013-01-20 19:54:00,48.0,36.0,30.11,West,270,0.0,0.0,62,0.00,,,0.00,,2013-01-21 00:54:00,
2013-01-20 20:03:00,47.0,35.0,30.11,West,270,0.0,0.0,63,0.00,,,0.00,,2013-01-21 01:03:00,
2013-01-20 20:13:00,47.0,35.0,30.11,West,270,0.0,0.0,63,0.00,,,0.00,,2013-01-21 01:13:00,
2013-01-20 20:23:00,47.0,35.0,30.11,West,270,0.0,0.0,63,0.00,,,0.00,,2013-01-21 01:23:00,
2013-01-20 20:33:00,46.0,34.0,30.11,West,270,0.0,0.0,62,0.00,,,0.00,,2013-01-21 01:33:00,
2013-01-20 20:43:00,46.0,34.0,30.11,West,270,0.0,0.0,62,0.00,,,0.00,,2013-01-21 01:43:00,
2013-01-20 20:53:00,46.0,35.0,30.11,West,270,0.0,0.0,65,0.00,,,0.00,,2013-01-21 01:53:00,
2013-01-20 21:03:00,45.0,34.0,30.12,West,270,0.0,0.0,66,0.00,,,0.00,,2013-01-21 02:03:00,
2013-01-20 21:12:00,45.0,34.0,30.12,West,270,0.0,0.0,66,0.00,,,0.00,,2013-01-21 02:12:00,
2013-01-20 21:23:00,45.0,35.0,30.12,West,270,0.0,0.0,67,0.00,,,0.00,,2013-01-21 02:23:00,
2013-01-20 21:33:00,44.0,33.0,30.11,West,270,0.0,0.0,66,0.00,,,0.00,,2013-01-21 02:33:00,
2013-01-20 21:43:00,44.0,33.0,30.11,West,270,0.0,0.0,66,0.00,,,0.00,,2013-01-21 02:43:00,
2013-01-20 21:53:00,44.0,33.0,30.11,West,270,0.0,0.0,66,0.00,,,0.00,,2013-01-21 02:53:00,
2013-01-20 22:03:00,43.0,32.0,30.11,West,270,0.0,0.0,66,0.00,,,0.00,,2013-01-21 03:03:00,
2013-01-20 22:13:00,43.0,32.0,30.11,West,270,0.0,0.0,66,0.00,,,0.00,,2013-01-21 03:13:00,
2013-01-20 22:23:00,42.0,34.0,30.11,West,270,0.0,0.0,73,0.00,,,0.00,,2013-01-21 03:23:00,
2013-01-20 22:33:00,42.0,35.0,30.11,West,270,0.0,0.0,75,0.00,,,0.00,,2013-01-21 03:33:00,
2013-01-20 22:43:00,42.0,35.0,30.11,West,270,0.0,0.0,75,0.00,,,0.00,,2013-01-21 03:43:00,
2013-01-20 22:54:00,42.0,35.0,30.11,West,270,0.0,0.0,77,0.00,,,0.00,,2013-01-21 03:54:00,
2013-01-20 23:03:00,41.0,35.0,30.11,West,270,0.0,0.0,78,0.00,,,0.00,,2013-01-21 04:03:00,
2013-01-20 23:13:00,41.0,35.0,30.11,West,270,0.0,0.0,78,0.00,,,0.00,,2013-01-21 04:13:00,
2013-01-20 23:23:00,40.0,34.0,30.11,West,270,0.0,0.0,78,0.00,,,0.00,,2013-01-21 04:23:00,
2013-01-20 23:33:00,40.0,34.0,30.10,West,270,0.0,0.0,80,0.00,,,0.00,,2013-01-21 04:33:00,
2013-01-20 23:43:00,40.0,34.0,30.10,West,270,0.0,0.0,80,0.00,,,0.00,,2013-01-21 04:43:00,
2013-01-20 23:53:00,40.0,34.0,30.10,West,270,0.0,0.0,80,0.00,,,0.00,,2013-01-21 04:53:00,